Location: Byszew
(52.1813°N, 19.2693°E)
Time: 21:42:03
(UTC+00:00)

Cosmos 1943 Rocket - Pass Details

Date: 03 March 2021
Orbit: 811 x 844 km, 71.0° (Epoch: 15 April)

Event Time Altitude Azimuth Distance (km) Brightness Sun altitude
Rises 17:14:27 0° 318° (NW) 3,413 6.0 -8.2°
Reaches altitude 10° 17:18:43 10° 348° (NNW) 2,478 4.8 -8.8°
Maximum altitude 17:20:53 12° 11° (N) 2,329 4.4 -9.2°
Drops below altitude 10° 17:23:04 10° 34° (NNE) 2,477 4.3 -9.5°
Enters shadow 17:25:28 - 53° (NE) 2,925 4.5 -9.9°
